CEB790 RPME-RPLL

Flight info

Callsign CEB790
Flight time 1h 9m
Altitude 36000
Route BAMP1B JARED W14 MCT W11 CONDE CONDE3R
Aircraft A321/M-SDE3FGHIRWY/LB1

Departure

Time 2026-05-04 11:29
Airport Bancasi Airport (RPME)

Arrival

Time 2026-05-04 12:38
Airport Ninoy Aquino International Airport (RPLL)
Time Latitude Longitude Altitude Speed Heading
2026-05-04 11:19 8.94895 125.48101 27 ft 0 kts 239°
2026-05-04 11:24 8.94894 125.48099 26 ft 2 kts 247°
2026-05-04 11:25 8.94906 125.48101 24 ft 3 kts 44°
2026-05-04 11:25 8.94918 125.48119 25 ft 3 kts 59°
2026-05-04 11:25 8.94915 125.48177 27 ft 14 kts 110°
2026-05-04 11:26 8.94904 125.48206 28 ft 0 kts 111°
2026-05-04 11:27 8.94783 125.48628 26 ft 8 kts 295°
2026-05-04 11:28 8.94791 125.48613 26 ft 0 kts 295°
2026-05-04 11:28 8.94805 125.48582 24 ft 19 kts 295°
2026-05-04 11:28 8.94985 125.48213 25 ft 94 kts 296°
2026-05-04 11:29 8.95365 125.47439 32 ft 149 kts 296°
2026-05-04 11:29 8.95860 125.46413 394 ft 163 kts 294°
2026-05-04 11:29 8.96333 125.45383 1055 ft 161 kts 294°
2026-05-04 11:29 8.96955 125.44445 1674 ft 161 kts 311°
2026-05-04 11:31 9.04456 125.36746 3679 ft 272 kts 315°
2026-05-04 11:33 9.13932 125.26841 8625 ft 290 kts 315°
2026-05-04 11:33 9.15343 125.25368 9263 ft 293 kts 315°
2026-05-04 11:33 9.16752 125.23898 9900 ft 296 kts 315°
2026-05-04 11:34 9.18217 125.22372 10189 ft 312 kts 315°
2026-05-04 11:34 9.19778 125.20743 10310 ft 332 kts 315°
2026-05-04 11:34 9.21431 125.19015 10486 ft 349 kts 315°
2026-05-04 11:34 9.23137 125.17228 10943 ft 356 kts 315°
2026-05-04 11:35 9.24868 125.15411 11453 ft 360 kts 314°
2026-05-04 11:35 9.26622 125.13574 11966 ft 365 kts 315°
2026-05-04 11:35 9.27799 125.12344 12289 ft 369 kts 315°
2026-05-04 11:35 9.29598 125.10467 12792 ft 374 kts 315°
2026-05-04 11:36 9.31420 125.08567 13303 ft 378 kts 315°
2026-05-04 11:36 9.33261 125.06645 13815 ft 382 kts 315°
2026-05-04 11:36 9.35115 125.04705 14277 ft 385 kts 315°
2026-05-04 11:36 9.36987 125.02743 14765 ft 388 kts 315°
2026-05-04 11:37 9.38868 125.00772 15241 ft 390 kts 315°
2026-05-04 11:37 9.40763 124.98787 15729 ft 393 kts 315°
2026-05-04 11:37 9.42644 124.96817 16197 ft 396 kts 315°
2026-05-04 11:37 9.44564 124.94806 16673 ft 398 kts 315°
2026-05-04 11:38 9.46489 124.92774 17116 ft 401 kts 315°
2026-05-04 11:38 9.48404 124.90691 17560 ft 404 kts 314°
2026-05-04 11:38 9.50312 124.88576 17993 ft 407 kts 314°
2026-05-04 11:38 9.52221 124.86445 18387 ft 410 kts 314°
2026-05-04 11:39 9.54146 124.84298 18753 ft 413 kts 314°
2026-05-04 11:39 9.56082 124.82140 19123 ft 415 kts 314°
2026-05-04 11:40 9.67937 124.69036 21246 ft 427 kts 314°
2026-05-04 11:41 9.69950 124.66807 21587 ft 429 kts 314°
2026-05-04 11:41 9.71974 124.64572 21932 ft 431 kts 314°
2026-05-04 11:41 9.74009 124.62323 22268 ft 433 kts 314°
2026-05-04 11:41 9.76051 124.60066 22599 ft 435 kts 314°
2026-05-04 11:42 9.78104 124.57799 22931 ft 437 kts 314°
2026-05-04 11:42 9.80170 124.55519 23253 ft 439 kts 314°
2026-05-04 11:42 9.82240 124.53233 23557 ft 441 kts 314°
2026-05-04 11:42 9.84319 124.50938 23823 ft 443 kts 314°
2026-05-04 11:43 9.86404 124.48633 24101 ft 444 kts 313°
2026-05-04 11:43 9.88500 124.46316 24387 ft 446 kts 313°
2026-05-04 11:43 9.90604 124.43991 24658 ft 447 kts 313°
2026-05-04 11:43 9.92713 124.41661 24928 ft 449 kts 313°
2026-05-04 11:44 9.94801 124.39351 25195 ft 450 kts 313°
2026-05-04 11:44 9.96948 124.36974 25464 ft 452 kts 313°
2026-05-04 11:44 9.99052 124.34645 25719 ft 454 kts 313°
2026-05-04 11:44 10.01188 124.32282 25977 ft 455 kts 313°
2026-05-04 11:45 10.03332 124.29909 26227 ft 457 kts 313°
2026-05-04 11:45 10.05484 124.27527 26477 ft 459 kts 313°
2026-05-04 11:45 10.07642 124.25137 26717 ft 460 kts 313°
2026-05-04 11:45 10.09808 124.22737 26967 ft 462 kts 313°
2026-05-04 11:46 10.11984 124.20326 27211 ft 463 kts 313°
2026-05-04 11:46 10.14165 124.17908 27450 ft 465 kts 313°
2026-05-04 11:46 10.16354 124.15483 27688 ft 467 kts 313°
2026-05-04 11:46 10.18553 124.13047 27925 ft 468 kts 313°
2026-05-04 11:47 10.20760 124.10602 28155 ft 470 kts 313°
2026-05-04 11:47 10.22972 124.08148 28384 ft 472 kts 313°
2026-05-04 11:47 10.25187 124.05689 28601 ft 473 kts 313°
2026-05-04 11:47 10.27410 124.03217 28812 ft 475 kts 313°
2026-05-04 11:48 10.29644 124.00736 29027 ft 476 kts 314°
2026-05-04 11:48 10.32048 123.98425 29226 ft 477 kts 322°
2026-05-04 11:48 10.34747 123.96465 29429 ft 477 kts 327°
2026-05-04 11:48 10.37497 123.94567 29648 ft 479 kts 327°
2026-05-04 11:49 10.40255 123.92661 29862 ft 481 kts 327°
2026-05-04 11:49 10.42992 123.90765 30057 ft 482 kts 327°
2026-05-04 11:49 10.45765 123.88840 30268 ft 483 kts 327°
2026-05-04 11:49 10.48528 123.86919 30561 ft 481 kts 326°
2026-05-04 11:50 10.51290 123.84996 30848 ft 480 kts 326°
2026-05-04 11:50 10.54047 123.83075 31136 ft 480 kts 326°
2026-05-04 11:50 10.56795 123.81160 31418 ft 479 kts 326°
2026-05-04 11:50 10.59539 123.79249 31709 ft 478 kts 326°
2026-05-04 11:51 10.62282 123.77339 32002 ft 477 kts 326°
2026-05-04 11:51 10.65020 123.75434 32294 ft 477 kts 326°
2026-05-04 11:51 10.67760 123.73527 32581 ft 476 kts 326°
2026-05-04 11:51 10.70500 123.71623 32866 ft 476 kts 326°
2026-05-04 11:52 10.73230 123.69726 33160 ft 475 kts 326°
2026-05-04 11:52 10.75955 123.67828 33441 ft 475 kts 326°
2026-05-04 11:52 10.78678 123.65929 33741 ft 474 kts 325°
2026-05-04 11:52 10.81398 123.64033 34013 ft 473 kts 325°
2026-05-04 11:53 10.84116 123.62139 34269 ft 473 kts 325°
2026-05-04 11:53 10.86793 123.60275 34532 ft 472 kts 325°
2026-05-04 11:53 10.89497 123.58390 34798 ft 471 kts 325°
2026-05-04 11:53 10.92196 123.56506 35061 ft 470 kts 325°
2026-05-04 11:55 11.10901 123.43448 35906 ft 461 kts 325°
2026-05-04 11:56 11.16185 123.39753 35910 ft 461 kts 325°
2026-05-04 11:56 11.21442 123.36087 35913 ft 461 kts 325°
2026-05-04 11:57 11.26739 123.32394 35918 ft 461 kts 325°
2026-05-04 11:57 11.32018 123.28685 35921 ft 461 kts 324°
2026-05-04 11:58 11.37295 123.24978 35929 ft 461 kts 325°
2026-05-04 11:58 11.42584 123.21279 35934 ft 461 kts 325°
2026-05-04 11:59 11.47873 123.17583 35937 ft 461 kts 325°
2026-05-04 11:59 11.53157 123.13882 35943 ft 460 kts 325°
2026-05-04 12:00 11.58439 123.10177 35941 ft 460 kts 324°
2026-05-04 12:00 11.63685 123.06497 35945 ft 460 kts 324°
2026-05-04 12:01 11.68960 123.02790 35947 ft 460 kts 324°
2026-05-04 12:02 11.87444 122.89814 35942 ft 461 kts 324°
2026-05-04 12:03 11.92725 122.86095 35940 ft 461 kts 324°
2026-05-04 12:03 11.98001 122.82376 35944 ft 461 kts 324°
2026-05-04 12:04 12.03248 122.78679 35952 ft 461 kts 324°
2026-05-04 12:04 12.08534 122.74959 35955 ft 461 kts 324°
2026-05-04 12:05 12.13824 122.71233 35956 ft 461 kts 324°
2026-05-04 12:05 12.19107 122.67505 35957 ft 461 kts 324°
2026-05-04 12:06 12.24390 122.63772 35957 ft 461 kts 324°
2026-05-04 12:06 12.29670 122.60043 35957 ft 461 kts 324°
2026-05-04 12:07 12.34958 122.56314 35959 ft 461 kts 324°
2026-05-04 12:07 12.40242 122.52586 35956 ft 461 kts 324°
2026-05-04 12:08 12.45487 122.48874 35953 ft 461 kts 324°
2026-05-04 12:08 12.50762 122.45145 35952 ft 460 kts 324°
2026-05-04 12:09 12.56027 122.41417 35956 ft 460 kts 324°
2026-05-04 12:09 12.61295 122.37697 35951 ft 460 kts 324°
2026-05-04 12:10 12.66529 122.33996 35950 ft 460 kts 324°
2026-05-04 12:10 12.71780 122.30260 35950 ft 459 kts 324°
2026-05-04 12:11 12.77034 122.26529 35953 ft 459 kts 324°
2026-05-04 12:11 12.82296 122.22805 35957 ft 459 kts 324°
2026-05-04 12:12 12.87540 122.19077 35955 ft 458 kts 324°
2026-05-04 12:12 12.92778 122.15349 35957 ft 458 kts 324°
2026-05-04 12:14 13.13641 122.00516 35236 ft 457 kts 324°
2026-05-04 12:15 13.16256 121.98657 35003 ft 457 kts 324°
2026-05-04 12:15 13.18876 121.96792 34774 ft 458 kts 324°
2026-05-04 12:15 13.21493 121.94928 34466 ft 458 kts 324°
2026-05-04 12:15 13.24125 121.93054 33342 ft 462 kts 324°
2026-05-04 12:16 13.26784 121.91158 32125 ft 467 kts 324°
2026-05-04 12:16 13.29467 121.89240 30950 ft 472 kts 325°
2026-05-04 12:16 13.32140 121.87329 29778 ft 476 kts 325°
2026-05-04 12:16 13.34861 121.85383 28763 ft 473 kts 325°
2026-05-04 12:17 13.37537 121.83472 27961 ft 464 kts 325°
2026-05-04 12:17 13.40174 121.81594 27135 ft 458 kts 325°
2026-05-04 12:17 13.42777 121.79743 26304 ft 450 kts 326°
2026-05-04 12:17 13.45327 121.77926 25239 ft 441 kts 326°
2026-05-04 12:18 13.47828 121.76142 24211 ft 434 kts 326°
2026-05-04 12:18 13.50289 121.74386 23156 ft 426 kts 326°
2026-05-04 12:18 13.52670 121.72687 22003 ft 419 kts 326°
2026-05-04 12:18 13.55049 121.70989 20851 ft 413 kts 326°
2026-05-04 12:19 13.57396 121.69307 19744 ft 408 kts 326°
2026-05-04 12:19 13.59716 121.67642 18689 ft 403 kts 326°
2026-05-04 12:19 13.62003 121.66005 17598 ft 398 kts 326°
2026-05-04 12:19 13.64262 121.64390 16535 ft 392 kts 326°
2026-05-04 12:20 13.66448 121.62827 16121 ft 369 kts 327°
2026-05-04 12:20 13.68519 121.61343 15367 ft 359 kts 327°
2026-05-04 12:20 13.70555 121.59882 14538 ft 354 kts 327°
2026-05-04 12:20 13.72560 121.58443 13752 ft 349 kts 327°
2026-05-04 12:21 13.74555 121.57015 13157 ft 348 kts 327°
2026-05-04 12:21 13.76538 121.55601 12908 ft 346 kts 327°
2026-05-04 12:21 13.78511 121.54193 12664 ft 344 kts 327°
2026-05-04 12:21 13.80472 121.52789 12423 ft 343 kts 327°
2026-05-04 12:22 13.82425 121.51389 12176 ft 341 kts 327°
2026-05-04 12:22 13.84340 121.50014 11941 ft 339 kts 327°
2026-05-04 12:22 13.86269 121.48624 11699 ft 338 kts 326°
2026-05-04 12:22 13.87458 121.47538 11491 ft 338 kts 313°
2026-05-04 12:23 13.88891 121.45618 11195 ft 337 kts 307°
2026-05-04 12:23 13.90693 121.43024 10874 ft 335 kts 307°
2026-05-04 12:23 13.91587 121.41730 10724 ft 335 kts 307°
2026-05-04 12:23 13.93382 121.39119 10413 ft 330 kts 307°
2026-05-04 12:24 13.94689 121.37210 10179 ft 322 kts 307°
2026-05-04 12:24 13.95533 121.35972 10078 ft 316 kts 307°
2026-05-04 12:24 13.96770 121.34148 10013 ft 306 kts 307°
2026-05-04 12:24 13.97983 121.32353 10015 ft 305 kts 307°
2026-05-04 12:25 13.99192 121.30562 10017 ft 305 kts 307°
2026-05-04 12:25 14.00399 121.28769 10017 ft 305 kts 307°
2026-05-04 12:25 14.01603 121.26975 10019 ft 305 kts 307°
2026-05-04 12:25 14.02808 121.25176 9955 ft 303 kts 307°
2026-05-04 12:26 14.04000 121.23397 9564 ft 301 kts 307°
2026-05-04 12:26 14.05188 121.21623 9169 ft 300 kts 307°
2026-05-04 12:26 14.06371 121.19864 8804 ft 298 kts 307°
2026-05-04 12:26 14.07547 121.18119 8432 ft 295 kts 307°
2026-05-04 12:27 14.08707 121.16405 8056 ft 294 kts 307°
2026-05-04 12:27 14.09877 121.14690 7690 ft 292 kts 307°
2026-05-04 12:27 14.11043 121.12983 7340 ft 290 kts 307°
2026-05-04 12:27 14.12204 121.11290 6964 ft 288 kts 307°
2026-05-04 12:28 14.13355 121.09605 6607 ft 287 kts 307°
2026-05-04 12:28 14.14502 121.07927 6236 ft 285 kts 307°
2026-05-04 12:28 14.15640 121.06262 5857 ft 284 kts 307°
2026-05-04 12:28 14.16779 121.04597 5498 ft 283 kts 307°
2026-05-04 12:29 14.17915 121.02943 5137 ft 282 kts 307°
2026-05-04 12:29 14.19045 121.01304 4990 ft 280 kts 307°
2026-05-04 12:29 14.20167 120.99684 4931 ft 281 kts 307°
2026-05-04 12:29 14.21293 120.98047 4538 ft 280 kts 307°
2026-05-04 12:30 14.22439 120.96389 4101 ft 281 kts 307°
2026-05-04 12:30 14.23580 120.94757 3697 ft 280 kts 307°
2026-05-04 12:30 14.24700 120.93154 3485 ft 279 kts 307°
2026-05-04 12:30 14.25829 120.91523 3483 ft 280 kts 306°
2026-05-04 12:31 14.26978 120.89887 3475 ft 282 kts 307°
2026-05-04 12:31 14.28116 120.88254 3263 ft 277 kts 307°
2026-05-04 12:31 14.29213 120.86667 3139 ft 267 kts 307°
2026-05-04 12:31 14.30273 120.85130 3027 ft 259 kts 307°
2026-05-04 12:32 14.31289 120.83653 2977 ft 245 kts 307°
2026-05-04 12:32 14.33628 120.81362 2995 ft 229 kts 344°
2026-05-04 12:32 14.35158 120.81154 2989 ft 224 kts
2026-05-04 12:33 14.36707 120.81313 2986 ft 224 kts
2026-05-04 12:33 14.38240 120.81547 2978 ft 221 kts 20°
2026-05-04 12:33 14.39588 120.82264 2981 ft 217 kts 41°
2026-05-04 12:33 14.40564 120.83431 2982 ft 215 kts 62°
2026-05-04 12:34 14.41292 120.84736 2988 ft 200 kts 62°
2026-05-04 12:34 14.41944 120.85911 2917 ft 180 kts 62°
2026-05-04 12:34 14.42547 120.86996 2737 ft 170 kts 63°
2026-05-04 12:34 14.43120 120.88027 2545 ft 162 kts 63°
2026-05-04 12:35 14.43674 120.89022 2352 ft 157 kts 62°
2026-05-04 12:35 14.44208 120.89983 2154 ft 152 kts 63°
2026-05-04 12:35 14.44718 120.90900 1981 ft 144 kts 63°
2026-05-04 12:35 14.45208 120.91780 1792 ft 140 kts 63°
2026-05-04 12:36 14.45685 120.92637 1619 ft 139 kts 62°
2026-05-04 12:36 14.46164 120.93499 1416 ft 138 kts 62°
2026-05-04 12:36 14.46645 120.94365 1248 ft 141 kts 61°
2026-05-04 12:36 14.47140 120.95232 1054 ft 140 kts 62°
2026-05-04 12:37 14.47622 120.96101 917 ft 141 kts 63°
2026-05-04 12:37 14.48083 120.96938 784 ft 140 kts 64°
2026-05-04 12:37 14.48575 120.97816 612 ft 143 kts 63°
2026-05-04 12:37 14.49064 120.98702 434 ft 141 kts 63°
2026-05-04 12:38 14.49556 120.99581 235 ft 140 kts 64°
2026-05-04 12:38 14.50038 121.00460 65 ft 138 kts 64°
2026-05-04 12:38 14.50452 121.01208 60 ft 92 kts 60°
2026-05-04 12:38 14.50669 121.01598 64 ft 36 kts 59°
2026-05-04 12:39 14.50798 121.01744 68 ft 20 kts 41°
2026-05-04 12:39 14.50866 121.01786 68 ft 10 kts
2026-05-04 12:39 14.50942 121.01732 67 ft 17 kts 316°
2026-05-04 12:39 14.51023 121.01651 60 ft 16 kts 315°
2026-05-04 12:40 14.51098 121.01573 62 ft 15 kts 315°
2026-05-04 12:40 14.51169 121.01499 62 ft 14 kts 314°
2026-05-04 12:40 14.51235 121.01434 65 ft 12 kts 327°
2026-05-04 12:40 14.51305 121.01455 64 ft 11 kts 48°
2026-05-04 12:41 14.51352 121.01513 63 ft 10 kts 50°
2026-05-04 12:41 14.51418 121.01580 62 ft 17 kts 41°
2026-05-04 12:41 14.51532 121.01677 62 ft 22 kts 41°
2026-05-04 12:41 14.51613 121.01763 63 ft 13 kts 45°
2026-05-04 12:42 14.51680 121.01777 64 ft 10 kts 335°
2026-05-04 12:42 14.51687 121.01732 65 ft 5 kts 240°
2026-05-04 12:42 14.51674 121.01716 66 ft 0 kts 225°